Flag for U.S.A. Weather past 2 weeks in Antioch, California, U.S.A.

Now
67 °F

Clear.


Feels Like: 67 °F
Forecast: 60 / 85 °F
Wind: 10 mph from Southwest

Location: Buchanan Field

Current Time: Sep 15, 2014 at 10:18:18 PM

Latest Report: Sep 15, 2014 at 9:53 PM


Visibility: 10 mi

Pressure: 29.87 "Hg

Humidity: 61%

Dew point: 53 °F

Location of AntiochLocation

Historic Weather in Antioch — Graph

°F

Antioch temperature yesterday

Maximum temperature yesterday: 88 °F (at 2:53 PM)
Minimum temperature yesterday: 59 °F (at 5:53 AM)
Average temperature yesterday: 72 °F

Past Weeks' High & Low Weather Summary

 TemperatureHumidityPressure
High97 °F (Sep 11, 4:53 PM)93% (Sep 10, 1:53 AM)29.96 "Hg (Sep 10, 1:53 AM)
Low54 °F (Sep 10, 6:53 AM)11% (Sep 10, 4:53 PM)29.62 "Hg (Sep 3, 4:53 PM)
Average70 °F60%29.79 "Hg
* Reported Aug 31 8:53 PM — Sep 15 8:53 PM, Antioch, Weather by CustomWeather, © 2014

Note: Actual official high and low records may vary slightly from our data, if they occured in-between our weather recording intervals... More about our weather records

Advertising

Antioch weather history for previous 24 hours

 ConditionsComfort  
Time TempWeatherWind HumidityBarometerVisibility
8:53 PM
Sep 15
67 °FClear.8 mph63%29.85 "Hg10 mi
7:53 PM70 °FSunny.14 mph59%29.83 "Hg10 mi
6:53 PM73 °FSunny.15 mph44%29.82 "Hg10 mi
5:53 PM78 °FSunny.14 mph39%29.82 "Hg10 mi
4:53 PM81 °FSunny.14 mph27%29.81 "Hg10 mi
3:53 PM84 °FSunny.15 mph26%29.82 "Hg10 mi
2:53 PM83 °FSunny.13 mph30%29.82 "Hg10 mi
1:53 PM84 °FSunny.10 mph26%29.83 "Hg10 mi
12:53 PM83 °FSunny.12 mph30%29.84 "Hg10 mi
11:53 AM78 °FSunny.12 mph39%29.85 "Hg10 mi
10:53 AM74 °FSunny.14 mph50%29.85 "Hg10 mi
9:53 AM71 °FSunny.8 mph55%29.85 "Hg10 mi
8:53 AM66 °FSunny.5 mph63%29.85 "Hg9 mi
7:53 AM63 °FSunny.6 mph75%29.83 "Hg10 mi
6:53 AM61 °FClear.7 mph81%29.83 "Hg10 mi
5:53 AM62 °FClear.7 mph75%29.81 "Hg10 mi
4:53 AM63 °FPassing clouds.9 mph70%29.80 "Hg10 mi
3:53 AM63 °FClear.6 mph68%29.78 "Hg10 mi
2:53 AM64 °FPassing clouds.No wind68%29.79 "Hg10 mi
1:53 AM64 °FPassing clouds.5 mph70%29.78 "Hg10 mi
12:53 AM64 °FClear.3 mph70%29.78 "Hg10 mi
11:53 PM
Sep 14
67 °FClear.3 mph63%29.77 "Hg10 mi
10:53 PM67 °FClear.5 mph66%29.76 "Hg10 mi
Weather by CustomWeather, © 2014

See weather overviewHow to use our weather pages